Location: Acheville
(50.3840°N, 2.8827°E)
Time: 18:54:17
(UTC+00:00)

Cosmos 2278 - Pass Details

Date: 24 October 2021
Orbit: 838 x 854 km, 71.1° (Epoch: 06 December)

Event Time Altitude Azimuth Distance (km) Brightness Sun altitude
Rises 17:39:15 0° 215° (SW) 3,392 7.5 -10.3°
Reaches altitude 10° 17:41:42 10° 217° (SW) 2,463 6.8 -10.7°
Maximum altitude 17:47:21 71° 302° (WNW) 898 4.0 -11.6°
Drops below altitude 10° 17:53:04 10° 26° (NNE) 2,489 5.9 -12.5°
Sets 17:55:33 0° 29° (NNE) 3,431 6.6 -12.9°
